Moab, UT

8:29 AM MDT on June 24, 2017 (GMT -0600)
Canyonlands

Weather History for KCNY - April, 2015

Change the Weather History Date:

Wednesday, April 1, 2015

  Actual Average Record
Temperature  
Mean Temperature 58 °F 48 °F  
Max Temperature 68 °F 63 °F 81 °F (1932)
Min Temperature 47 °F 34 °F 19 °F (2008)
Degree Days  
Heating Degree Days 7 16  
Month to date heating degree days 7 16  
Since 1 July heating degree days 4225 5064  
Cooling Degree Days 0 0  
Month to date cooling degree days 0 0  
Year to date cooling degree days 0 0  
Growing Degree Days 8 (Base 50)    
Moisture  
Dew Point 15 °F    
Average Humidity 19    
Maximum Humidity 29    
Minimum Humidity 9    
Precipitation  
Precipitation 0.00 in 0.02 in 0.52 in (1975)
Month to date precipitation 0.00 0.02  
Year to date precipitation 0.61 1.95  
Sea Level Pressure  
Sea Level Pressure 29.74 in    
Wind  
Wind Speed 12 mph (WNW)    
Max Wind Speed 29 mph    
Max Gust Speed 40 mph    
Visibility 10 miles    
Events      
T = Trace of Precipitation, MM = Missing Value Source: NWS Daily Summary

Daily Weather History Graph

Daily Weather History Graph

Search for Another Location

Airport or City:

Trip Planner

Search our weather history database for the weather conditions in past years. The results will help you decide how hot, cold, wet, or windy it might be!

Date:

Astronomy

Apr. 01, 2015 Rise Set
Actual Time 7:04 AM MDT 7:42 PM MDT
Civil Twilight 6:37 AM MDT 8:09 PM MDT
Nautical Twilight 6:05 AM MDT 8:40 PM MDT
Astronomical Twilight 5:33 AM MDT 9:13 PM MDT
Moon 5:25 PM MDT (4/1) 5:35 AM MDT (4/1)
Length of Visible Light 13h 31m
Length of Day
12h 38m
Waxing Gibbous, 93% of the Moon is Illuminated
Apr 1
Waxing Gibbous
Apr 4
Full
Apr 11
Last Quarter
Apr 18
New
Apr 25
First Quarter

Hourly Weather History & Observations

Time (MDT) Temp. Dew Point Humidity Pressure Visibility Wind Dir Wind Speed Gust Speed Precip Events Conditions
12:53 AM 55.0 °F 19.0 °F 24% 29.67 in 10.0 mi SW 11.5 mph - N/A   Clear
1:53 AM 55.0 °F 19.0 °F 24% 29.65 in 10.0 mi SW 11.5 mph - N/A   Clear
2:53 AM 54.0 °F 19.0 °F 25% 29.65 in 10.0 mi SSW 10.4 mph - N/A   Clear
3:53 AM 55.9 °F 19.0 °F 24% 29.65 in 10.0 mi Calm Calm - N/A   Clear
4:53 AM 55.4 °F 21.2 °F 26% 29.79 in 10.0 mi Calm Calm - N/A   Clear
5:53 AM 55.9 °F 19.9 °F 25% 29.67 in 10.0 mi Calm Calm - N/A   Clear
6:53 AM 55.0 °F 21.0 °F 27% 29.68 in 10.0 mi WSW 12.7 mph - N/A   Clear
7:53 AM 54.0 °F 23.0 °F 30% 29.71 in 10.0 mi SW 8.1 mph - N/A   Clear
8:29 AM 59.0 °F 21.0 °F 23% 29.85 in 10.0 mi West 17.3 mph - N/A   Clear
8:53 AM 60.1 °F 21.0 °F 22% 29.74 in 10.0 mi West 15.0 mph - N/A   Clear
9:53 AM 62.1 °F 21.0 °F 21% 29.76 in 10.0 mi NW 24.2 mph 31.1 mph N/A   Clear
10:53 AM 62.1 °F 18.0 °F 18% 29.78 in 10.0 mi NW 28.8 mph 34.5 mph N/A   Clear
11:53 AM 61.0 °F 17.1 °F 18% 29.81 in 10.0 mi NNW 24.2 mph - N/A   Clear
12:53 PM 64.0 °F 18.0 °F 17% 29.79 in 10.0 mi WNW 20.7 mph 31.1 mph N/A   Clear
1:53 PM 64.9 °F 15.1 °F 15% 29.79 in 10.0 mi West 21.9 mph 27.6 mph N/A   Clear
2:53 PM 64.9 °F 14.0 °F 14% 29.77 in 10.0 mi NW 10.4 mph 23.0 mph N/A   Clear
3:53 PM 66.0 °F 12.0 °F 12% 29.74 in 10.0 mi WNW 12.7 mph 20.7 mph N/A   Clear
4:53 PM 66.0 °F 8.1 °F 10% 29.73 in 10.0 mi NW 16.1 mph - N/A   Clear
5:53 PM 64.9 °F 5.0 °F 9% 29.71 in 10.0 mi WNW 10.4 mph 18.4 mph N/A   Clear
6:53 PM 62.1 °F 3.9 °F 10% 29.72 in 10.0 mi NW 12.7 mph - N/A   Clear
7:53 PM 57.0 °F 5.0 °F 12% 29.73 in 10.0 mi West 3.5 mph - N/A   Clear
8:53 PM 53.6 °F 5.0 °F 14% 29.82 in 10.0 mi WNW 4.6 mph - N/A   Clear
9:53 PM 54.0 °F 5.0 °F 14% 29.73 in 10.0 mi WNW 10.4 mph - N/A   Clear
10:53 PM 51.1 °F 7.0 °F 17% 29.73 in 10.0 mi NW 6.9 mph - N/A   Clear
11:53 PM 46.9 °F 7.0 °F 20% 29.75 in 10.0 mi East 6.9 mph - N/A   Clear